OpenBCM V1.07b12 (Linux)

Packet Radio Mailbox

DB0FHN

[JN59NK Nuernberg]

 Login: GUEST





  
CX2SA  > KEPS     28.08.04 05:06l 151 Lines 3941 Bytes #999 (0) @ AMSAT
BID : ORB04240.O
Read: GUEST
Subj: Orbital Elements  04240.OSCAR
Path: DB0FHN<DB0FOR<DB0SIF<DB0AIS<DB0ZDF<DB0GE<F6KFT<F6KMO<ON0BEL<ZL2TZE<
      ED1ZAC<CX2SA
Sent: 040828/0300Z @:CX2SA.LAV.URY.SA #:6109 [Minas] FBB7.00e $:ORB04240.O
From: CX2SA@CX2SA.LAV.URY.SA
To  : KEPS@AMSAT


HR AMSAT ORBITAL ELEMENTS FOR OSCAR SATELLITES
FROM WA5QGD FORT WORTH,TX August 27, 2004
SEND SUBSCRIBE/UNSUBSCRIBE TO majordomo@amsat.org ONLY
BID: ORB04240.O
TO ALL RADIO AMATEURS BT

Satellite: AO-07
Catalog number: 07530
Epoch time:      04240.54412606
Element set:     313
Inclination:      101.6765 deg
RA of node:       286.1522 deg
Eccentricity:    0.0012296
Arg of perigee:    82.9739 deg
Mean anomaly:     277.2735 deg
Mean motion:   12.53568853 rev/day
Decay rate:       -2.9e-07 rev/day^2
Epoch rev:           36285
Checksum:              303

Satellite: AO-10
Catalog number: 14129
Epoch time:      04239.06579063
Element set:    0098
Inclination:      026.5778 deg
RA of node:       074.8564 deg
Eccentricity:    0.6026252
Arg of perigee:   118.7329 deg
Mean anomaly:     313.9663 deg
Mean motion:   02.05870986 rev/day
Decay rate:      -3.39e-06 rev/day^2
Epoch rev:           15945
Checksum:              338

Satellite: UO-11
Catalog number: 14781
Epoch time:      04240.75109700
Element set:     564
Inclination:       98.1797 deg
RA of node:       226.7978 deg
Eccentricity:    0.0008584
Arg of perigee:   215.7532 deg
Mean anomaly:     144.3087 deg
Mean motion:   14.78981714 rev/day
Decay rate:       5.69e-06 rev/day^2
Epoch rev:            9842
Checksum:              339

Satellite: RS-10/11
Catalog number: 18129
Epoch time:      04239.92333133
Element set:    0493
Inclination:      082.9237 deg
RA of node:       095.8108 deg
Eccentricity:    0.0012700
Arg of perigee:   118.6585 deg
Mean anomaly:     241.5849 deg
Mean motion:   13.72743446 rev/day
Decay rate:        4.0e-07 rev/day^2
Epoch rev:           86070
Checksum:              301

Satellite: FO-20
Catalog number: 20480
Epoch time:      04239.69919136
Element set:     701
Inclination:       99.0428 deg
RA of node:       103.8310 deg
Eccentricity:    0.0540266
Arg of perigee:   187.0509 deg
Mean anomaly:     172.2759 deg
Mean motion:   12.83341139 rev/day
Decay rate:       -4.4e-07 rev/day^2
Epoch rev:           68172
Checksum:              299

Satellite: RS-12/13
Catalog number: 21089
Epoch time:      04239.77597384
Element set:    0726
Inclination:      082.9234 deg
RA of node:       129.3954 deg
Eccentricity:    0.0028865
Arg of perigee:   176.6572 deg
Mean anomaly:     183.4778 deg
Mean motion:   13.74440842 rev/day
Decay rate:        5.8e-07 rev/day^2
Epoch rev:           68005
Checksum:              352

Satellite: RS-15
Catalog number: 23439
Epoch time:      04239.50463509
Element set:    0811
Inclination:      064.8140 deg
RA of node:       224.1135 deg
Eccentricity:    0.0154498
Arg of perigee:   008.6666 deg
Mean anomaly:     351.6872 deg
Mean motion:   11.27549696 rev/day
Decay rate:       -4.2e-07 rev/day^2
Epoch rev:           39816
Checksum:              318

Satellite: FO-29
Catalog number: 24278
Epoch time:      04240.83218718
Element set:     790
Inclination:       98.5857 deg
RA of node:       323.4140 deg
Eccentricity:    0.0349947
Arg of perigee:   216.0258 deg
Mean anomaly:     141.6834 deg
Mean motion:   13.52902035 rev/day
Decay rate:       -2.2e-07 rev/day^2
Epoch rev:           39652
Checksum:              315

Satellite: SO-33
Catalog number: 25509
Epoch time:      04239.36711519
Element set:     182
Inclination:       31.4277 deg
RA of node:       258.8639 deg
Eccentricity:    0.0355693
Arg of perigee:   109.5585 deg
Mean anomaly:     254.3796 deg
Mean motion:   14.27860608 rev/day
Decay rate:        1.0e-08 rev/day^2
Epoch rev:           30465
Checksum:              327

Satellite: AO-40
Catalog number: 26609
Epoch time:      04240.31554315
Element set:     428
Inclination:        9.8777 deg
RA of node:       345.5324 deg
Eccentricity:    0.7973183
Arg of perigee:   314.6800 deg
Mean anomaly:       3.7089 deg
Mean motion:    1.25586214 rev/day
Decay rate:      -2.41e-06 rev/day^2
Epoch rev:            1756
Checksum:              300



Read previous mail | Read next mail


 30.07.2025 18:00:43lGo back Go up